| << 25.7. | 27.7. >> |
|
Windrichtung in Grad |
Windgeschw. in m/s |
Windspitzen in m/s |
Temp.Minima in °C |
Temperatur in °C |
Temp.Maxima in °C |
Luftfeuchte in % |
Luftdruck in hPa |
Taupunkt in °C |
Niederschlag in mm |
|
|---|---|---|---|---|---|---|---|---|---|---|
| ▲ Maxima | 2,6 | 8,5 | 21,6 | 22,1 | 22,4 | 88,7 | 995,6 | 17,4 | 0,0 | |
| Ø Mittelwert | 248,0 | 1,4 | 3,6 | 18,6 | 18,9 | 19,1 | 68,4 | 993,7 | 14,0 | 0,0 |
| ▼ Minima | 0,2 | 0,9 | 16,2 | 16,4 | 16,6 | 49,7 | 993,0 | 11,1 | 0,0 | |
| ∑ Summe | 0,0 |
| Uhrzeit (MEZ) | Windrichtung in Grad | Windgeschw. in m/s | Windspitzen in m/s | Temp.Minima in °C | Temperatur in °C | Temp.Maxima in °C | Luftfeuchte in % | Luftdruck in hPa | Taupunkt in °C | Niederschlag in mm |
|---|---|---|---|---|---|---|---|---|---|---|
| 00:00 | 247,3 | 0,7 | 1,0 | 18,0 | 18,1 | 18,3 | 66,5 | 994,2 | 13,1 | 0,0 |
| 00:10 | 241,5 | 0,9 | 1,2 | 18,0 | 18,2 | 18,4 | 65,6 | 994,2 | 12,9 | 0,0 |
| 00:20 | 248,4 | 0,6 | 0,9 | 18,1 | 18,3 | 18,4 | 64,9 | 994,1 | 12,9 | 0,0 |
| 00:30 | 266,3 | 0,7 | 1,0 | 17,6 | 17,8 | 18,1 | 66,9 | 994,1 | 12,9 | 0,0 |
| 00:40 | 261,2 | 0,6 | 1,4 | 17,3 | 17,4 | 17,7 | 68,9 | 994,2 | 13,0 | 0,0 |
| 00:50 | 250,9 | 0,9 | 1,6 | 17,2 | 17,4 | 17,7 | 69,5 | 994,2 | 13,1 | 0,0 |
| 01:00 | 246,6 | 0,8 | 1,7 | 17,5 | 17,6 | 17,8 | 69,1 | 994,1 | 13,2 | 0,0 |
| 01:10 | 244,9 | 1,2 | 2,0 | 17,5 | 17,7 | 17,9 | 68,3 | 994,0 | 13,0 | 0,0 |
| 01:20 | 250,9 | 0,9 | 1,6 | 17,5 | 17,7 | 17,8 | 67,5 | 993,9 | 12,9 | 0,0 |
| 01:30 | 255,0 | 1,0 | 2,0 | 17,5 | 17,6 | 17,8 | 67,6 | 993,9 | 12,8 | 0,0 |
| 01:40 | 262,5 | 0,8 | 1,7 | 17,3 | 17,5 | 17,7 | 67,5 | 993,9 | 12,8 | 0,0 |
| 01:50 | 263,6 | 0,7 | 1,4 | 17,3 | 17,4 | 17,5 | 67,9 | 993,9 | 12,7 | 0,0 |
| 02:00 | 255,6 | 0,6 | 1,3 | 17,3 | 17,4 | 17,6 | 68,2 | 993,8 | 12,8 | 0,0 |
| 02:10 | 258,9 | 0,5 | 1,3 | 17,3 | 17,4 | 17,5 | 68,3 | 993,8 | 12,9 | 0,0 |
| 02:20 | 250,4 | 0,4 | 1,1 | 17,3 | 17,4 | 17,6 | 68,2 | 993,8 | 12,9 | 0,0 |
| 02:30 | 256,3 | 0,4 | 1,3 | 17,4 | 17,5 | 17,7 | 68,0 | 993,9 | 13,0 | 0,0 |
| 02:40 | 240,2 | 1,2 | 2,2 | 17,4 | 17,7 | 18,1 | 67,4 | 993,8 | 12,8 | 0,0 |
| 02:50 | 237,3 | 1,8 | 3,5 | 17,8 | 18,0 | 18,1 | 66,5 | 993,8 | 12,8 | 0,0 |
| 03:00 | 235,7 | 1,8 | 3,7 | 17,4 | 17,7 | 17,8 | 67,5 | 993,8 | 12,7 | 0,0 |
| 03:10 | 241,1 | 1,9 | 4,2 | 17,3 | 17,5 | 17,6 | 68,2 | 993,7 | 12,7 | 0,0 |
| 03:20 | 248,1 | 1,4 | 3,4 | 17,2 | 17,5 | 17,6 | 68,9 | 993,6 | 12,8 | 0,0 |
| 03:30 | 253,3 | 1,6 | 3,1 | 16,7 | 17,0 | 17,5 | 69,8 | 993,8 | 12,6 | 0,0 |
| 03:40 | 241,5 | 1,3 | 2,4 | 16,5 | 16,8 | 16,9 | 70,7 | 993,7 | 12,6 | 0,0 |
| 03:50 | 244,0 | 1,1 | 2,1 | 16,5 | 16,6 | 16,8 | 71,3 | 993,6 | 12,7 | 0,0 |
| 04:00 | 237,6 | 1,3 | 2,8 | 16,3 | 16,6 | 16,7 | 71,5 | 993,6 | 12,6 | 0,0 |
| 04:10 | 235,8 | 1,1 | 2,9 | 16,3 | 16,6 | 16,8 | 71,1 | 993,3 | 12,6 | 0,0 |
| 04:20 | 238,4 | 1,3 | 3,0 | 16,3 | 16,7 | 16,8 | 70,4 | 993,3 | 12,5 | 0,0 |
| 04:30 | 234,6 | 1,3 | 3,3 | 16,4 | 16,7 | 16,8 | 70,1 | 993,3 | 12,4 | 0,0 |
| 04:40 | 229,7 | 1,3 | 3,0 | 16,5 | 16,7 | 16,8 | 69,3 | 993,1 | 12,2 | 0,0 |
| 04:50 | 236,4 | 1,3 | 3,3 | 16,4 | 16,6 | 16,8 | 68,8 | 993,0 | 12,0 | 0,0 |
| 05:00 | 247,7 | 1,1 | 2,9 | 16,3 | 16,5 | 16,7 | 67,7 | 993,1 | 11,8 | 0,0 |
| 05:10 | 228,2 | 0,7 | 2,3 | 16,2 | 16,4 | 16,7 | 66,3 | 993,1 | 11,4 | 0,0 |
| 05:20 | 248,4 | 0,6 | 2,3 | 16,3 | 16,5 | 16,8 | 65,3 | 993,1 | 11,3 | 0,0 |
| 05:30 | 260,6 | 0,4 | 1,5 | 16,3 | 16,5 | 16,7 | 64,8 | 993,0 | 11,2 | 0,0 |
| 05:40 | 265,2 | 0,5 | 1,4 | 16,6 | 16,8 | 17,0 | 63,7 | 993,1 | 11,2 | 0,0 |
| 05:50 | 232,0 | 0,7 | 1,7 | 16,8 | 17,2 | 17,6 | 62,1 | 993,3 | 11,1 | 0,0 |
| 06:00 | 223,7 | 0,4 | 1,4 | 17,3 | 17,7 | 18,1 | 60,9 | 993,2 | 11,3 | 0,0 |
| 06:10 | 220,8 | 0,2 | 1,1 | 17,9 | 18,3 | 18,8 | 60,0 | 993,2 | 11,7 | 0,0 |
| 06:20 | 229,9 | 0,6 | 2,3 | 18,2 | 18,7 | 19,1 | 59,1 | 993,3 | 11,7 | 0,0 |
| 06:30 | 207,2 | 0,4 | 1,4 | 18,2 | 18,5 | 18,8 | 60,1 | 993,4 | 11,9 | 0,0 |
| 06:40 | 219,4 | 0,6 | 1,4 | 18,8 | 19,1 | 19,4 | 59,0 | 993,2 | 12,1 | 0,0 |
| 06:50 | 222,3 | 0,8 | 2,6 | 18,9 | 19,2 | 19,5 | 59,0 | 993,2 | 12,1 | 0,0 |
| 07:00 | 205,1 | 0,6 | 2,0 | 18,8 | 19,3 | 19,8 | 58,8 | 993,2 | 12,2 | 0,0 |
| 07:10 | 235,3 | 0,6 | 1,6 | 19,2 | 19,4 | 19,7 | 58,7 | 993,2 | 12,4 | 0,0 |
| 07:20 | 225,9 | 0,6 | 1,4 | 19,0 | 19,3 | 19,5 | 59,2 | 993,2 | 12,4 | 0,0 |
| 07:30 | 236,7 | 0,6 | 2,2 | 18,7 | 19,0 | 19,5 | 61,0 | 993,3 | 12,6 | 0,0 |
| 07:40 | 244,0 | 0,4 | 1,1 | 18,9 | 19,2 | 19,6 | 60,8 | 993,2 | 12,7 | 0,0 |
| 07:50 | 268,0 | 0,7 | 1,9 | 19,0 | 19,4 | 19,9 | 60,3 | 993,4 | 12,7 | 0,0 |
| Uhrzeit (MEZ) | Windrichtung in Grad | Windgeschw. in m/s | Windspitzen in m/s | Temp.Minima in °C | Temperatur in °C | Temp.Maxima in °C | Luftfeuchte in % | Luftdruck in hPa | Taupunkt in °C | Niederschlag in mm |
|---|---|---|---|---|---|---|---|---|---|---|
| 08:00 | 242,4 | 0,8 | 2,3 | 18,8 | 19,1 | 19,5 | 60,7 | 993,4 | 12,5 | 0,0 |
| 08:10 | 234,6 | 0,7 | 1,9 | 19,0 | 19,4 | 20,0 | 59,6 | 993,3 | 12,5 | 0,0 |
| 08:20 | 257,0 | 0,8 | 2,3 | 19,5 | 19,8 | 20,0 | 57,6 | 993,3 | 12,3 | 0,0 |
| 08:30 | 260,5 | 1,3 | 5,1 | 19,4 | 19,8 | 20,1 | 56,5 | 993,3 | 12,0 | 0,0 |
| 08:40 | 264,3 | 1,7 | 4,2 | 19,4 | 19,6 | 19,7 | 57,0 | 993,4 | 11,8 | 0,0 |
| 08:50 | 257,1 | 1,7 | 6,6 | 19,6 | 20,3 | 20,7 | 55,2 | 993,3 | 11,9 | 0,0 |
| 09:00 | 263,7 | 2,0 | 5,4 | 20,1 | 20,3 | 20,5 | 53,8 | 993,3 | 11,5 | 0,0 |
| 09:10 | 253,1 | 2,0 | 4,0 | 19,9 | 20,1 | 20,2 | 54,6 | 993,3 | 11,5 | 0,0 |
| 09:20 | 258,3 | 1,8 | 4,4 | 19,8 | 20,0 | 20,2 | 54,2 | 993,4 | 11,4 | 0,0 |
| 09:30 | 261,5 | 2,1 | 5,3 | 20,0 | 20,1 | 20,2 | 53,9 | 993,5 | 11,4 | 0,0 |
| 09:40 | 260,1 | 1,8 | 4,3 | 19,9 | 20,2 | 20,4 | 53,9 | 993,4 | 11,4 | 0,0 |
| 09:50 | 263,1 | 1,8 | 4,5 | 20,3 | 20,5 | 20,8 | 53,5 | 993,4 | 11,7 | 0,0 |
| 10:00 | 265,2 | 1,5 | 3,9 | 20,8 | 21,1 | 21,6 | 52,0 | 993,3 | 11,8 | 0,0 |
| 10:10 | 258,2 | 2,2 | 5,6 | 21,2 | 21,6 | 21,7 | 50,4 | 993,2 | 11,6 | 0,0 |
| 10:20 | 267,8 | 1,6 | 4,3 | 20,8 | 21,1 | 21,4 | 51,7 | 993,3 | 11,7 | 0,0 |
| 10:30 | 246,8 | 1,6 | 3,5 | 21,0 | 21,5 | 21,9 | 50,9 | 993,2 | 11,8 | 0,0 |
| 10:40 | 260,9 | 1,9 | 5,0 | 21,5 | 22,1 | 22,4 | 49,7 | 993,0 | 11,9 | 0,0 |
| 10:50 | 251,4 | 1,6 | 4,8 | 21,4 | 21,8 | 22,2 | 50,0 | 993,1 | 11,8 | 0,0 |
| 11:00 | 269,0 | 1,6 | 4,5 | 21,5 | 21,8 | 21,9 | 50,8 | 993,1 | 12,0 | 0,0 |
| 11:10 | 262,9 | 1,8 | 4,5 | 21,0 | 21,4 | 21,8 | 51,6 | 993,2 | 11,9 | 0,0 |
| 11:20 | 265,5 | 1,8 | 5,7 | 21,1 | 21,4 | 21,5 | 51,4 | 993,3 | 11,8 | 0,0 |
| 11:30 | 259,8 | 2,4 | 6,1 | 20,6 | 21,0 | 21,3 | 51,9 | 993,2 | 11,5 | 0,0 |
| 11:40 | 259,7 | 2,2 | 4,9 | 20,6 | 20,8 | 20,9 | 52,8 | 993,2 | 11,6 | 0,0 |
| 11:50 | 258,4 | 1,9 | 6,2 | 20,3 | 20,6 | 20,7 | 54,5 | 993,2 | 12,0 | 0,0 |
| 12:00 | 259,2 | 1,9 | 6,2 | 20,5 | 20,8 | 21,0 | 55,6 | 993,1 | 12,5 | 0,0 |
| 12:10 | 255,7 | 2,3 | 5,1 | 21,0 | 21,1 | 21,1 | 56,1 | 993,1 | 12,9 | 0,0 |
| 12:20 | 258,5 | 1,8 | 5,9 | 20,9 | 21,1 | 21,2 | 57,3 | 993,2 | 13,3 | 0,0 |
| 12:30 | 252,4 | 2,0 | 5,0 | 21,0 | 21,4 | 21,6 | 57,9 | 993,1 | 13,7 | 0,0 |
| 12:40 | 254,4 | 2,4 | 6,1 | 21,0 | 21,1 | 21,3 | 59,7 | 993,2 | 14,0 | 0,0 |
| 12:50 | 257,0 | 1,8 | 3,8 | 21,1 | 21,4 | 21,5 | 60,1 | 993,2 | 14,3 | 0,0 |
| 13:00 | 258,9 | 2,1 | 5,7 | 21,2 | 21,5 | 21,6 | 60,0 | 993,1 | 14,4 | 0,0 |
| 13:10 | 252,5 | 2,0 | 4,9 | 21,1 | 21,3 | 21,4 | 61,4 | 993,2 | 14,6 | 0,0 |
| 13:20 | 248,4 | 2,1 | 5,7 | 21,3 | 21,7 | 21,9 | 61,0 | 993,3 | 14,9 | 0,0 |
| 13:30 | 244,8 | 1,9 | 5,6 | 21,4 | 21,7 | 21,9 | 61,2 | 993,3 | 14,9 | 0,0 |
| 13:40 | 240,6 | 1,9 | 5,1 | 21,6 | 21,9 | 22,1 | 60,5 | 993,3 | 14,9 | 0,0 |
| 13:50 | 250,4 | 2,4 | 6,3 | 21,0 | 21,3 | 21,6 | 61,9 | 993,3 | 14,7 | 0,0 |
| 14:00 | 255,9 | 2,1 | 7,2 | 20,6 | 20,8 | 21,0 | 64,4 | 993,4 | 14,9 | 0,0 |
| 14:10 | 257,8 | 1,6 | 4,9 | 19,5 | 19,9 | 20,7 | 72,8 | 993,5 | 16,1 | 0,0 |
| 14:20 | 270,7 | 1,5 | 4,3 | 19,7 | 19,9 | 20,1 | 71,3 | 993,4 | 15,8 | 0,0 |
| 14:30 | 250,3 | 1,7 | 4,1 | 19,8 | 20,0 | 20,1 | 71,2 | 993,5 | 15,7 | 0,0 |
| 14:40 | 252,7 | 1,6 | 4,4 | 19,9 | 20,2 | 20,5 | 68,9 | 993,6 | 15,4 | 0,0 |
| 14:50 | 253,3 | 2,2 | 4,4 | 20,4 | 20,6 | 20,7 | 66,8 | 993,6 | 15,3 | 0,0 |
| 15:00 | 250,5 | 1,8 | 5,0 | 20,3 | 20,6 | 20,7 | 66,6 | 993,6 | 15,2 | 0,0 |
| 15:10 | 250,4 | 2,1 | 4,8 | 20,4 | 20,6 | 20,7 | 66,5 | 993,6 | 15,2 | 0,0 |
| 15:20 | 248,8 | 1,9 | 4,5 | 20,4 | 20,6 | 20,7 | 66,5 | 993,5 | 15,2 | 0,0 |
| 15:30 | 254,3 | 1,6 | 5,6 | 20,4 | 20,7 | 21,0 | 66,4 | 993,5 | 15,4 | 0,0 |
| 15:40 | 245,5 | 2,1 | 6,4 | 20,6 | 20,9 | 21,0 | 66,5 | 993,4 | 15,5 | 0,0 |
| 15:50 | 252,3 | 1,9 | 5,4 | 20,6 | 21,1 | 21,3 | 66,1 | 993,4 | 15,6 | 0,0 |
| Uhrzeit (MEZ) | Windrichtung in Grad | Windgeschw. in m/s | Windspitzen in m/s | Temp.Minima in °C | Temperatur in °C | Temp.Maxima in °C | Luftfeuchte in % | Luftdruck in hPa | Taupunkt in °C | Niederschlag in mm |
|---|---|---|---|---|---|---|---|---|---|---|
| 16:00 | 247,4 | 1,4 | 4,5 | 21,0 | 21,4 | 22,0 | 65,1 | 993,3 | 15,8 | 0,0 |
| 16:10 | 241,8 | 2,0 | 5,3 | 21,5 | 21,7 | 22,0 | 64,9 | 993,3 | 15,9 | 0,0 |
| 16:20 | 243,6 | 2,0 | 4,5 | 20,9 | 21,1 | 21,5 | 66,7 | 993,3 | 15,7 | 0,0 |
| 16:30 | 241,9 | 2,0 | 5,7 | 20,6 | 20,9 | 21,0 | 67,8 | 993,2 | 15,8 | 0,0 |
| 16:40 | 246,3 | 2,1 | 7,5 | 20,7 | 21,1 | 21,3 | 67,6 | 993,1 | 15,9 | 0,0 |
| 16:50 | 243,7 | 2,5 | 7,0 | 20,9 | 21,2 | 21,3 | 67,3 | 993,1 | 16,0 | 0,0 |
| 17:00 | 240,7 | 2,6 | 6,4 | 20,9 | 21,3 | 21,4 | 67,0 | 993,1 | 16,0 | 0,0 |
| 17:10 | 248,4 | 2,0 | 5,7 | 20,9 | 21,2 | 21,2 | 67,4 | 993,2 | 16,0 | 0,0 |
| 17:20 | 251,4 | 2,3 | 5,2 | 21,0 | 21,2 | 21,2 | 67,5 | 993,2 | 16,0 | 0,0 |
| 17:30 | 244,5 | 2,5 | 8,5 | 20,5 | 20,9 | 21,0 | 68,7 | 993,3 | 15,9 | 0,0 |
| 17:40 | 242,6 | 1,9 | 5,3 | 20,5 | 20,8 | 20,8 | 69,6 | 993,4 | 16,1 | 0,0 |
| 17:50 | 242,6 | 1,8 | 4,4 | 20,3 | 20,6 | 20,7 | 70,7 | 993,4 | 16,2 | 0,0 |
| 18:00 | 244,0 | 1,8 | 5,4 | 19,6 | 20,2 | 20,5 | 74,0 | 993,5 | 16,6 | 0,0 |
| 18:10 | 248,4 | 1,0 | 4,2 | 17,9 | 18,6 | 19,6 | 83,0 | 993,6 | 17,1 | 0,0 |
| 18:20 | 201,9 | 0,6 | 1,7 | 17,7 | 17,9 | 18,2 | 87,6 | 993,5 | 17,4 | 0,0 |
| 18:30 | 230,5 | 1,4 | 3,4 | 17,8 | 18,2 | 18,4 | 86,7 | 993,3 | 17,3 | 0,0 |
| 18:40 | 242,8 | 1,5 | 4,1 | 18,2 | 18,7 | 19,0 | 82,9 | 993,3 | 17,1 | 0,0 |
| 18:50 | 251,6 | 1,6 | 4,1 | 18,0 | 18,4 | 18,8 | 83,0 | 993,4 | 16,7 | 0,0 |
| 19:00 | 239,6 | 1,1 | 3,7 | 17,8 | 18,1 | 18,2 | 84,5 | 993,6 | 16,8 | 0,0 |
| 19:10 | 226,3 | 1,4 | 3,1 | 18,0 | 18,2 | 18,4 | 84,0 | 993,4 | 16,8 | 0,0 |
| 19:20 | 236,9 | 1,0 | 2,7 | 18,0 | 18,2 | 18,4 | 83,7 | 993,3 | 16,8 | 0,0 |
| 19:30 | 247,1 | 1,6 | 4,0 | 18,0 | 18,3 | 18,4 | 83,8 | 993,4 | 16,8 | 0,0 |
| 19:40 | 270,3 | 1,5 | 4,2 | 17,7 | 18,0 | 18,2 | 84,7 | 994,1 | 16,8 | 0,0 |
| 19:50 | 272,6 | 1,3 | 4,2 | 16,8 | 17,4 | 17,8 | 81,8 | 994,1 | 15,5 | 0,0 |
| 20:00 | 271,0 | 1,0 | 2,4 | 16,7 | 16,9 | 17,1 | 81,9 | 994,1 | 15,2 | 0,0 |
| 20:10 | 249,3 | 0,8 | 2,1 | 16,5 | 16,8 | 17,0 | 82,3 | 994,2 | 15,2 | 0,0 |
| 20:20 | 249,0 | 0,7 | 1,7 | 16,4 | 16,6 | 16,8 | 83,4 | 994,3 | 15,3 | 0,0 |
| 20:30 | 231,8 | 0,4 | 1,1 | 16,4 | 16,5 | 16,6 | 84,3 | 994,3 | 15,4 | 0,0 |
| 20:40 | 238,3 | 0,4 | 1,2 | 16,4 | 16,6 | 16,9 | 84,2 | 994,4 | 15,6 | 0,0 |
| 20:50 | 241,2 | 0,3 | 0,9 | 16,5 | 16,6 | 16,7 | 84,6 | 994,5 | 15,6 | 0,0 |
| 21:00 | 244,6 | 0,7 | 1,5 | 16,5 | 16,7 | 16,9 | 85,4 | 994,6 | 15,7 | 0,0 |
| 21:10 | 235,5 | 0,8 | 2,5 | 16,6 | 16,8 | 17,0 | 86,1 | 994,6 | 15,9 | 0,0 |
| 21:20 | 248,1 | 0,9 | 2,5 | 16,8 | 17,0 | 17,4 | 86,1 | 994,7 | 16,2 | 0,0 |
| 21:30 | 249,8 | 1,1 | 3,1 | 17,0 | 17,4 | 17,6 | 86,1 | 994,7 | 16,4 | 0,0 |
| 21:40 | 248,2 | 1,3 | 2,9 | 17,4 | 17,6 | 17,7 | 85,7 | 994,8 | 16,5 | 0,0 |
| 21:50 | 250,4 | 1,5 | 3,1 | 17,5 | 17,7 | 17,8 | 85,5 | 994,8 | 16,5 | 0,0 |
| 22:00 | 256,3 | 1,7 | 4,6 | 17,4 | 17,7 | 17,8 | 85,5 | 994,9 | 16,5 | 0,0 |
| 22:10 | 250,3 | 2,2 | 5,3 | 17,7 | 17,8 | 17,8 | 85,0 | 994,9 | 16,5 | 0,0 |
| 22:20 | 243,9 | 2,4 | 5,3 | 17,2 | 17,4 | 17,7 | 86,6 | 995,0 | 16,5 | 0,0 |
| 22:30 | 246,8 | 2,2 | 4,3 | 16,8 | 17,0 | 17,2 | 88,2 | 995,1 | 16,3 | 0,0 |
| 22:40 | 262,3 | 1,5 | 3,6 | 16,4 | 16,7 | 16,8 | 88,7 | 995,2 | 16,2 | 0,0 |
| 22:50 | 257,0 | 1,6 | 4,4 | 16,5 | 16,8 | 16,9 | 87,8 | 995,3 | 16,1 | 0,0 |
| 23:00 | 245,3 | 1,6 | 3,9 | 16,6 | 16,8 | 16,9 | 87,2 | 995,4 | 16,0 | 0,0 |
| 23:10 | 243,4 | 1,3 | 3,3 | 16,5 | 16,7 | 16,8 | 87,2 | 995,5 | 15,9 | 0,0 |
| 23:20 | 247,3 | 1,0 | 3,2 | 16,4 | 16,6 | 16,8 | 87,4 | 995,5 | 15,9 | 0,0 |
| 23:30 | 240,3 | 1,6 | 3,9 | 16,4 | 16,7 | 16,8 | 87,2 | 995,6 | 15,9 | 0,0 |
| 23:40 | 242,9 | 1,5 | 3,5 | 16,4 | 16,6 | 16,7 | 86,6 | 995,5 | 15,7 | 0,0 |
| 23:50 | 249,7 | 1,5 | 5,2 | 16,3 | 16,6 | 16,7 | 85,8 | 995,6 | 15,5 | 0,0 |
| << 25.7. | 27.7. >> |